Flag for Saudi Arabia Weather past 2 weeks in Turaif, Saudi Arabia

Now
86 °F

Clear.


Feels Like: 83 °F
Forecast: 73 / 101 °F
Wind: 9 mph from West

Location: Turaif

Current Time: Jul 31, 2014 at 11:14:46 PM

Latest Report: Jul 31, 2014 at 10:00 PM


Visibility: 10 mi

Pressure: 29.77 "Hg

Humidity: 13%

Dew point: 30 °F

Location of TuraifLocation

Historic Weather in Turaif — Graph

°F

Turaif temperature yesterday

Maximum temperature yesterday: 99 °F (at 3:00 PM)
Minimum temperature yesterday: 70 °F (at 6:00 AM)
Average temperature yesterday: 87 °F

Past Weeks' High & Low Weather Summary

 TemperatureHumidityPressure
High99 °F (Jul 29, 3:00 PM)94% (Jul 21, 5:00 AM)29.98 "Hg (Jul 21, 5:00 AM)
Low63 °F (Jul 19, 6:00 AM)10% (Jul 31, 7:00 PM)29.62 "Hg (Jul 19, 6:00 AM)
Average82 °F38%29.82 "Hg
* Reported Jul 16 10:00 PM — Jul 31 10:00 PM, Turaif, Weather by CustomWeather, © 2014

Note: Actual official high and low records may vary slightly from our data, if they occured in-between our weather recording intervals... More about our weather records

Advertising

Turaif weather history for previous 24 hours

 ConditionsComfort  
Time TempWeatherWind HumidityBarometerVisibility
10:00 PM
Jul 31
86 °FClear.9 mph13%29.77 "Hg10 mi
9:00 PM90 °FClear.9 mph12%29.77 "Hg10 mi
8:00 PM91 °FSunny.7 mph12%29.74 "Hg10 mi
7:00 PM95 °FSunny.9 mph10%29.74 "Hg10 mi
6:00 PM99 °FSunny.6 mph13%29.74 "Hg10 mi
5:00 PM99 °FSunny.9 mph13%29.74 "Hg10 mi
4:00 PM99 °FSunny.5 mph14%29.74 "Hg10 mi
3:00 PM99 °FSunny.12 mph16%29.77 "Hg10 mi
2:00 PM99 °FSunny.7 mph17%29.77 "Hg10 mi
1:00 PM97 °FSunny.5 mph18%29.80 "Hg10 mi
12:00 PM95 °FSunny.5 mph23%29.80 "Hg10 mi
11:00 AM91 °FSunny.7 mph24%29.83 "Hg10 mi
10:00 AM90 °FSunny.12 mph27%29.83 "Hg10 mi
9:00 AM84 °FSunny.8 mph37%29.83 "Hg10 mi
8:00 AM81 °FSunny.7 mph39%29.80 "Hg10 mi
7:00 AM75 °FSunny.9 mph47%29.80 "Hg10 mi
6:00 AM70 °FClear.9 mph57%29.80 "Hg10 mi
5:00 AM72 °FClear.12 mph53%29.77 "Hg10 mi
4:00 AM72 °FClear.9 mph50%29.77 "Hg10 mi
3:00 AM73 °FMild.13 mph44%29.80 "HgN/A
2:00 AM77 °FClear.12 mph39%29.80 "Hg10 mi
1:00 AM77 °FClear.12 mph39%29.80 "Hg10 mi
12:00 AM82 °FClear.9 mph35%29.80 "Hg10 mi
11:00 PM
Jul 30
84 °FClear.12 mph33%29.80 "Hg10 mi
Weather by CustomWeather, © 2014

See weather overviewHow to use our weather pages